Weather in Tsvetochnoye

Russia / Omsk Oblast     53°39′53″N   74°03′23″E
temp.,
°C
wind,
m/s
gust,
m/s
humid.,
%
clouds,
%
prec.,
mm/h
press.,
hPa
HPBL,
m
13 june, sun
sun1300:00+14n5874100 0.0 1022321
03:00+13nw3692100 0.1 1021204
06:00+13nnw379193 0.1 1022325
09:00+15nnw4879100 0.0 1022386
12:00+20nnw565696 0.0 1021972
15:00+23nnw364394 0.0 10211813
18:00+22nne365074 0.3 10201021
21:00+17s347882 2.8 102164
14 june, mon
mon1400:00+17nw48775 3.9 1021127
03:00+17nnw4974100 0.0 1021183
06:00+17n367758 0.0 1022136
09:00+23nne45515 0.0 1022512
12:00+27nne47375 0.0 10222014
15:00+28ne6732100 0.0 10212766
18:00+26ne573997 0.0 1021712
21:00+21nnw355999 0.0 1022126
15 june, tue
tue1500:00+19e33625 0.0 102127
03:00+17s226618 0.1 102115
06:00+17sw23675 0.2 102272
09:00+23sw3348100 0.0 1022487
12:00+26w33380 0.0 10202334
15:00+29nw432756 0.0 10183150
18:00+23nw6946100 0.0 1018239
21:00+24sw344352 0.0 101657
16 june, wed
wed1600:00+21w4446100 0.0 101652
03:00+20wsw3361100 0.6 101647
06:00+20wsw3560100 1.3 101586
09:00+25w4647100 0.0 1016447
12:00+29w5734100 0.0 10141711
15:00+28nnw683886 0.0 10131164
18:00+25wnw111153100 0.3 1013833
21:00+20w226986 6.1 101366
17 june, thu
thu1700:00+18wsw3585100 7.3 101392
03:00+18wnw35865 0.0 101376
06:00+18nw368261 0.0 1013152
09:00+23nw34625 0.0 1012558
12:00+27wnw33475 0.0 10121461
15:00+28wnw4541100 0.0 10102100
18:00+28wnw45395 0.0 10091860
21:00+25sw33522 0.0 100825